[[{"header":{"parameterUnit":"m.s-1","parameterCategory":1,"la1":30.2991,"la2":30.254,"lo1":-89.0895,"lo2":-89.0444,"dy":0.0017,"dx":0.0017,"nx":28,"ny":28,"refTime":"2024-08-13T03:00:00:Z","depth":0,"parameterNumber":2,"parameterNumberName":"U-component_of_WINDS"},"data":[0,0,0,0,0,0,0,0,0,0,0,0,0,0,0,0,0,0,0,0,0,0,0,0,0,0,0,0,0,0,0,0,0,0,0,0,0,0,0,0,0,0,0,0,0,0,0,0,0,0,0,0,0,0,0,0,0,0,2.1542,2.1543,0,2.1639,2.164,2.1641,2.1626,2.1624,2.1622,2.1621,2.1723,2.1727,2.1732,0,0,0,0,0,0,0,0,0,0,0,0,0,2.1345,2.1349,2.1542,2.1543,2.1544,2.1639,2.164,2.1641,2.1626,2.1624,2.1622,2.162,2.1722,2.1727,2.1732,0,0,0,0,0,0,0,0,0,0,0,0,0,2.1435,2.135,2.1542,2.1548,2.155,2.1638,2.164,2.1642,2.1626,2.1624,2.1621,2.1619,2.172,2.1726,2.1733,2.1822,0,0,2.1752,2.1755,0,0,0,0,0,0,0,0,2.143,2.1443,2.1546,2.1548,2.155,2.1618,2.1608,2.1702,2.1627,2.1597,2.1621,2.1618,2.169,2.1699,2.1723,2.1827,2.1831,2.1753,2.1757,2.1759,2.1761,0,0,0,0,0,0,0,2.1424,2.1438,2.158,2.1548,2.155,2.1546,2.1557,2.1626,2.1657,2.16,2.1599,2.161,2.1691,2.1717,2.1725,2.1833,2.1753,2.1758,2.1762,2.1765,2.2012,2.2014,0,0,0,0,0,0,2.1416,2.1433,2.1577,2.1583,2.1483,2.1552,2.1563,2.1598,2.1656,2.1662,2.1612,2.1609,2.1707,2.1718,2.1729,2.1834,2.1759,2.1765,2.1769,2.2009,2.2012,2.2015,0,0,0,0,0,0,2.1412,2.1429,2.1573,2.1508,2.1526,2.1558,2.1598,2.1602,2.1627,2.1665,2.1671,2.1633,2.1705,2.172,2.1798,2.1837,2.1768,2.1774,2.2006,2.201,2.2014,2.2047,0,0,0,0,0,0,2.1406,2.1427,2.1461,2.1509,2.153,2.1641,2.16,2.1605,2.1638,2.1635,2.1686,2.1692,2.1704,2.1788,2.1804,2.1845,2.1779,2.2002,2.2008,2.2013,2.2043,2.2052,2.206,0,0,0,0,0,2.1399,2.1469,2.1463,2.1481,2.1573,2.1643,2.1655,2.1667,2.1641,2.1675,2.17,2.1691,2.1831,2.1797,2.1814,2.1858,2.2,2.2006,2.2012,2.2039,2.205,2.206,0,0,0,0,0,0,2.1427,2.1475,2.147,2.1557,2.1596,2.164,2.1684,2.1679,2.1727,2.1722,2.1736,2.1747,2.1826,2.185,2.1811,2.1946,2.1912,2.1922,2.1926,2.1937,2.1946,2.1937,2.1785,0,0,0,0,0,2.1442,2.1495,2.1535,2.1608,2.1627,2.1652,2.1684,2.1689,2.173,2.1747,2.1777,2.1818,2.1871,2.1906,2.1958,2.2047,2.2057,2.2086,2.2094,2.2101,2.2109,2.2155,2.2167,2.2035,2.2035,2.2035,0,0,2.1476,2.1509,2.1542,2.1614,2.1645,2.1698,2.1666,2.1725,2.1765,2.1757,2.1831,2.1855,2.1902,2.1985,2.2023,2.2007,2.2147,2.2109,2.2114,2.2118,2.2162,2.2174,2.2185,2.204,2.2039,2.2038,0,0,2.1564,2.1596,2.1658,2.1689,2.1736,2.1751,2.1766,2.1812,2.1826,2.1901,2.1895,2.1943,2.2035,2.2068,2.2096,2.2195,2.2187,2.2211,2.2255,2.23,2.231,2.2319,2.2351,2.2363,2.2219,2.222,2.222,0,2.1601,2.168,2.1691,2.1749,2.178,2.1774,2.1836,2.1866,2.1928,2.1949,2.1931,2.2044,2.2075,2.2164,2.2188,2.2213,2.2229,2.2204,2.2308,2.2317,2.2326,2.2356,2.2369,2.2222,2.2222,2.2221,2.2221,0,2.1721,2.1776,2.1821,2.1878,2.1915,2.1975,2.1994,2.203,2.2032,2.205,2.2125,2.2163,2.2219,2.2242,2.2246,2.2331,2.2319,2.2305,2.227,2.234,2.2369,2.2381,2.2225,2.2224,2.2224,2.2223,0,0,2.1828,2.1889,2.1905,2.1929,2.198,2.2023,2.2083,2.2137,2.2166,2.2209,2.2258,2.2335,2.232,2.2353,2.236,2.24,2.2471,2.238,2.2381,2.2392,2.2564,2.2572,2.2586,2.2467,2.247,2.2472,2.2559,0,2.1919,2.2022,2.2033,2.2126,2.2175,2.2169,2.2221,2.2257,2.2276,2.2321,2.2342,2.2394,2.2373,2.2392,2.2431,2.2454,2.2505,2.2448,2.2512,2.2514,2.2497,2.2602,2.2612,2.2692,2.2571,2.2573,2.2574,0,2.2038,2.2081,2.2178,2.2218,2.224,2.2286,2.2335,2.2379,2.242,2.243,2.2465,2.2467,2.2527,2.2493,2.2576,2.2536,2.2563,2.2579,2.2582,2.2586,2.2546,2.2606,2.2719,2.273,2.2593,2.2591,2.259,0,2.2102,2.2185,2.2253,2.2275,2.2325,2.2357,2.2379,2.2417,2.2448,2.2492,2.2512,2.2563,2.259,2.2629,2.2644,2.2618,2.2726,2.2693,2.2735,2.2734,2.2756,2.2753,2.2871,2.2778,2.2778,2.2777,2.2777,0,2.22,2.2259,2.2282,2.2324,2.2389,2.2401,2.2465,2.2486,2.252,2.2565,2.2565,2.2607,2.2626,2.2671,2.2684,2.2748,2.2762,2.2771,2.2773,2.2769,2.2768,2.2785,2.2779,2.2781,2.278,2.2779,2.2779,0,2.2282,2.23,2.2373,2.2414,2.2425,2.2471,2.2506,2.2546,2.2563,2.262,2.2634,2.2662,2.2715,2.2734,2.28,2.2808,2.2882,2.2881,2.2868,2.2867,2.2907,2.2901,2.3037,2.3055,2.2953,2.2954,2.2954,0,2.2341,2.2386,2.2431,2.246,2.2483,2.2531,2.2562,2.2576,2.2608,2.2656,2.269,2.2742,2.2785,2.287,2.2896,2.2945,2.2944,2.2988,2.2951,2.2945,2.294,2.2936,2.2939,2.2994,2.2995,2.2996,2.2996,0,2.2444,2.245,2.2494,2.2541,2.2578,2.2616,2.2653,2.2677,2.2696,2.2733,2.2786,2.2819,2.2884,2.2935,2.2985,2.3009,2.3005,2.3008,2.302,2.3015,2.3004,2.3007,2.2883,2.3004,2.3004,2.3003,2.3003,2.3002,2.2514,2.2552,2.2589,2.2638,2.2667,2.27,2.2739,2.276,2.2804,2.2857,2.2863,2.292,2.2958,2.3024,2.305,2.3094,2.3082,2.31,2.3104,2.3108,2.3109,2.2999,2.3104,2.3104,2.3104,2.3104,2.3104,0,2.2614,2.2637,2.2682,2.2732,2.277,2.2763,2.2803,2.2835,2.2884,2.292,2.2961,2.3021,2.307,2.3099,2.3149,2.3178,2.3178,2.3191,2.3187,2.3192,2.3118,2.3102,2.319,2.319,2.319,2.319,2.319,2.319,2.267,2.2733,2.2744,2.2821,2.2844,2.2898,2.2921,2.2952,2.298,2.3046,2.3086,2.3105,2.3137,2.3189,2.3233,2.3241,2.3258,2.3271,2.3277,2.3207,2.3198,2.3189,2.3173,2.3275,2.3275,2.3346,2.3347,2.3348]},{"header":{"parameterUnit":"m.s-1","parameterCategory":1,"la1":30.2991,"la2":30.254,"lo1":-89.0895,"lo2":-89.0444,"dy":0.0017,"dx":0.0017,"nx":28,"ny":28,"refTime":"2024-08-13T03:00:00:Z","depth":0,"parameterNumber":3,"parameterNumberName":"V-component_of_WINDS"},"data":[0,0,0,0,0,0,0,0,0,0,0,0,0,0,0,0,0,0,0,0,0,0,0,0,0,0,0,0,0,0,0,0,0,0,0,0,0,0,0,0,0,0,0,0,0,0,0,0,0,0,0,0,0,0,0,0,0,0,3.89,3.8899,0,3.88,3.8799,3.8798,3.8694,3.8692,3.8691,3.8689,3.8587,3.8585,3.8584,0,0,0,0,0,0,0,0,0,0,0,0,0,3.8999,3.8998,3.89,3.8899,3.8898,3.88,3.8799,3.8797,3.8694,3.8692,3.869,3.8689,3.8587,3.8585,3.8584,0,0,0,0,0,0,0,0,0,0,0,0,0,3.8934,3.8998,3.89,3.8834,3.8827,3.88,3.8799,3.8797,3.8694,3.8692,3.869,3.8688,3.8588,3.8586,3.8584,3.8614,0,0,3.8577,3.8576,0,0,0,0,0,0,0,0,3.8937,3.893,3.8845,3.8839,3.8831,3.8757,3.8796,3.8736,3.8695,3.8745,3.8689,3.8687,3.8645,3.8638,3.8624,3.8609,3.8605,3.8577,3.8576,3.8575,3.8574,0,0,0,0,0,0,0,3.8942,3.8934,3.886,3.8844,3.8835,3.8809,3.8797,3.8784,3.8708,3.874,3.8732,3.8722,3.8641,3.8626,3.8621,3.8603,3.8577,3.8575,3.8574,3.8573,3.8601,3.8603,0,0,0,0,0,0,3.8957,3.8938,3.8864,3.8857,3.888,3.8809,3.8796,3.8783,3.8708,3.8695,3.8724,3.8717,3.8631,3.8623,3.8617,3.8643,3.8575,3.8573,3.8572,3.8599,3.8602,3.8604,0,0,0,0,0,0,3.8959,3.8951,3.8868,3.8896,3.8883,3.8809,3.8796,3.8782,3.8767,3.8696,3.8682,3.8723,3.8629,3.862,3.8614,3.8638,3.8572,3.857,3.8597,3.86,3.8603,3.8698,0,0,0,0,0,0,3.8963,3.8953,3.8964,3.8897,3.8882,3.8868,3.8798,3.8782,3.8764,3.8755,3.8691,3.8679,3.8627,3.8618,3.8612,3.8634,3.8568,3.8595,3.8598,3.8602,3.8692,3.8704,3.8713,0,0,0,0,0,3.8967,3.8996,3.8965,3.8957,3.8895,3.8869,3.8861,3.88,3.8767,3.8776,3.873,3.8681,3.8637,3.8618,3.8611,3.8632,3.8593,3.8597,3.8602,3.8687,3.8701,3.8713,0,0,0,0,0,0,3.9069,3.8986,3.8951,3.896,3.8922,3.8852,3.8863,3.8818,3.8789,3.8781,3.8708,3.8694,3.8696,3.8664,3.8644,3.8654,3.8607,3.8611,3.8675,3.8688,3.8698,3.8705,3.8567,0,0,0,0,0,3.9093,3.908,3.9008,3.9022,3.9005,3.8938,3.8924,3.888,3.8839,3.8822,3.8775,3.8736,3.8712,3.8699,3.8674,3.8688,3.867,3.8699,3.8709,3.8718,3.8721,3.8721,3.8731,3.8619,3.8619,3.8619,0,0,3.9141,3.9094,3.9091,3.9041,3.9007,3.8993,3.8925,3.8914,3.8902,3.8821,3.881,3.8775,3.8726,3.8729,3.8728,3.8702,3.8748,3.8724,3.8732,3.873,3.8727,3.8737,3.8747,3.8622,3.8621,3.8621,0,0,3.9222,3.9187,3.9192,3.9159,3.9108,3.9062,3.9064,3.8999,3.8972,3.8961,3.8898,3.8883,3.8846,3.8811,3.879,3.8854,3.8806,3.8848,3.8903,3.8904,3.8913,3.892,3.8939,3.8947,3.8852,3.8852,3.8852,0,3.9288,3.9266,3.9202,3.9193,3.9172,3.9096,3.91,3.9071,3.9015,3.9001,3.8973,3.8921,3.8884,3.8875,3.889,3.8877,3.8873,3.8854,3.8917,3.8923,3.8929,3.8946,3.8954,3.8857,3.8857,3.8856,3.8856,0,3.9348,3.9333,3.9344,3.9289,3.927,3.9268,3.9201,3.9189,3.9147,3.9104,3.9091,3.9043,3.9004,3.9,3.896,3.8984,3.8969,3.8931,3.8881,3.8946,3.896,3.8967,3.8865,3.8863,3.8861,3.886,0,0,3.9489,3.9398,3.9403,3.9375,3.9312,3.9298,3.9292,3.9254,3.9243,3.9206,3.9196,3.9165,3.9127,3.9102,3.9057,3.9058,3.9107,3.9018,3.9016,3.9033,3.9125,3.9152,3.9161,3.9076,3.9077,3.9077,3.9128,0,3.9555,3.9539,3.948,3.9481,3.9464,3.9391,3.9385,3.9345,3.9304,3.9282,3.9237,3.9214,3.9169,3.9152,3.915,3.9101,3.9123,3.9097,3.9063,3.9062,3.9074,3.9169,3.9199,3.9249,3.9134,3.9135,3.9135,0,3.963,3.9597,3.9596,3.9529,3.952,3.9516,3.9474,3.9456,3.9407,3.9377,3.9348,3.9297,3.9283,3.9239,3.9217,3.9201,3.9183,3.9156,3.9157,3.9149,3.9101,3.916,3.9264,3.927,3.9144,3.9144,3.9143,0,3.9728,3.9683,3.9675,3.9655,3.9579,3.9576,3.9545,3.9494,3.9474,3.9437,3.9422,3.9385,3.9364,3.9336,3.9274,3.9249,3.9258,3.921,3.9229,3.9231,3.9232,3.9233,3.9331,3.9227,3.9227,3.9227,3.9227,0,3.9806,3.9807,3.9718,3.9713,3.9711,3.9642,3.9642,3.9603,3.9558,3.9542,3.9478,3.9465,3.9387,3.9363,3.9316,3.9302,3.9294,3.9267,3.9254,3.9271,3.9274,3.9256,3.925,3.9229,3.9229,3.9228,3.9228,0,3.9914,3.9854,3.984,3.9769,3.9751,3.9752,3.969,3.9681,3.9636,3.9617,3.9608,3.9537,3.9506,3.9443,3.9395,3.9362,3.9358,3.9337,3.9375,3.9366,3.9387,3.9385,3.9475,3.9481,3.9378,3.9379,3.938,0,3.9966,3.9964,3.9892,3.9877,3.9848,3.9825,3.9803,3.9735,3.9715,3.9658,3.9655,3.9619,3.9586,3.9539,3.9482,3.9443,3.9419,3.9453,3.9412,3.9428,3.9414,3.9414,3.9411,3.9461,3.9463,3.9464,3.9465,0,4.0062,4.0032,4.0004,3.9965,3.9941,3.9907,3.9869,3.986,3.9783,3.9763,3.973,3.9705,3.9654,3.9617,3.957,3.9535,3.9486,3.9478,3.948,3.9496,3.9516,3.9501,3.9395,3.9476,3.9475,3.9474,3.9473,3.9473,4.014,4.0135,4.0082,4.0052,4.0016,3.9982,3.9969,3.9921,3.9893,3.9847,3.9808,3.9778,3.9725,3.9657,3.9624,3.9598,3.9574,3.9578,3.9578,3.9579,3.9585,3.9523,3.9589,3.9589,3.9589,3.9588,3.9588,0,4.023,4.0193,4.0166,4.0114,4.009,4.0047,4.0002,3.9984,3.9958,3.9914,3.9882,3.9842,3.9806,3.9745,3.9703,3.9693,3.9669,3.9684,3.9682,3.9674,3.961,3.9611,3.9704,3.9704,3.9704,3.9704,3.9704,3.9704,4.0274,4.026,4.0224,4.0191,4.0153,4.0123,4.01,4.0067,4.0031,3.999,3.9959,3.992,3.9868,3.9821,3.9784,3.9767,3.9752,3.9774,3.9749,3.969,3.9679,3.9669,3.9669,3.9772,3.9772,3.9814,3.9815,3.9815]}]]